Weather History for Klamath Falls, OR

Change the Weather History Date:

Sunday, August 19, 2012

  Actual Average Record
Temperature  
Mean Temperature 67 °F 64 °F  
Max Temperature 87 °F 83 °F 95 °F (1967)
Min Temperature 47 °F 46 °F 37 °F (1964)
Degree Days  
Heating Degree Days 0 2  
Month to date heating degree days 0 31  
Since 1 June heating degree days 331 298  
Since 1 July heating degree days 42 81  
Cooling Degree Days 2 2  
Month to date cooling degree days 105 50  
Year to date cooling degree days 172 144  
Since 1 June cooling degree days 171 143  
Growing Degree Days 18 (Base 50)    
Moisture  
Dew Point 43 °F    
Average Humidity 50    
Maximum Humidity 93    
Minimum Humidity 11    
Precipitation  
Precipitation 0.00 in 0.01 in 0.65 in (1968)
Month to date precipitation 0.07 0.23  
Year to date precipitation 6.12 9.54  
Sea Level Pressure  
Sea Level Pressure 29.96 in    
Wind  
Wind Speed 5 mph (NW)    
Max Wind Speed 21 mph    
Max Gust Speed 25 mph    
Visibility 10 miles    
Events      
T = Trace of Precipitation, MM = Missing Value Source: NWS Daily Summary

Daily Weather History Graph

Daily Weather History Graph

Search for Another Location

Airport:

Trip Planner

Search our weather history database for the weather conditions in past years. The results will help you decide how hot, cold, wet, or windy it might be!

Date:

Astronomy

Aug. 19, 2012 Rise Set
Actual Time 6:19 AM PDT 8:00 PM PDT
Civil Twilight 5:49 AM PDT 8:30 PM PDT
Nautical Twilight 5:13 AM PDT 9:06 PM PDT
Astronomical Twilight 4:34 AM PDT 9:44 PM PDT
Moon 8:43 AM PDT (8/19) 8:48 PM PDT (8/19)
Length of Visible Light 14h 40m
Length of Day
13h 41m
Waxing Crescent, 5% of the Moon is Illuminated
Aug 19
Waxing Crescent
Aug 24
First Quarter
Aug 31
Full
Sep 8
Last Quarter
Sep 15
New

Hourly Weather History & Observations

Time (PDT) Temp. Dew Point Humidity Pressure Visibility Wind Dir Wind Speed Gust Speed Precip Events Conditions
12:53 AM 59.0 °F 48.0 °F 67% 29.94 in 10.0 mi Calm Calm - N/A   Clear
1:53 AM 54.0 °F 48.9 °F 83% 29.95 in 10.0 mi Calm Calm - N/A   Mostly Cloudy
2:53 AM 53.6 °F 48.2 °F 82% 30.07 in 10.0 mi Calm Calm - N/A   Clear
3:53 AM 53.1 °F 48.9 °F 86% 29.95 in 10.0 mi Calm Calm - N/A   Clear
4:53 AM 48.9 °F 46.9 °F 93% 29.95 in 10.0 mi Calm Calm - N/A   Clear
5:53 AM 50.0 °F 46.9 °F 89% 29.95 in 10.0 mi Calm Calm - N/A   Clear
6:00 AM 48.2 °F 46.4 °F 93% 30.07 in 10.0 mi Calm Calm - N/A   Mostly Cloudy
6:53 AM 48.2 °F 46.4 °F 93% 29.98 in 10.0 mi Calm Calm - N/A   Scattered Clouds
7:53 AM 57.2 °F 51.8 °F 82% 29.99 in 10.0 mi Calm Calm - N/A   Partly Cloudy
8:53 AM 64.0 °F 48.9 °F 58% 29.99 in 10.0 mi Calm Calm - N/A   Clear
9:53 AM 69.1 °F 48.9 °F 49% 29.98 in 10.0 mi Calm Calm - N/A   Clear
10:53 AM 75.0 °F 50.0 °F 41% 29.96 in 10.0 mi Calm Calm - N/A   Clear
11:53 AM 78.1 °F 48.9 °F 36% 29.96 in 10.0 mi ESE 4.6 mph - N/A   Clear
12:53 PM 82.9 °F 45.0 °F 26% 29.94 in 10.0 mi Variable 3.5 mph - N/A   Clear
1:53 PM 84.0 °F 39.0 °F 20% 29.93 in 10.0 mi West 4.6 mph - N/A   Partly Cloudy
2:53 PM 86.0 °F 30.9 °F 14% 29.91 in 10.0 mi NW 5.8 mph 16.1 mph N/A   Partly Cloudy
3:53 PM 87.1 °F 28.9 °F 12% 29.90 in 10.0 mi WNW 12.7 mph - N/A   Partly Cloudy
4:53 PM 86.0 °F 26.1 °F 11% 29.90 in 10.0 mi West 10.4 mph - N/A   Partly Cloudy
5:49 PM 84.2 °F 35.6 °F 18% 30.02 in 10.0 mi NNW 13.8 mph - N/A   Partly Cloudy
5:53 PM 84.9 °F 36.0 °F 17% 29.90 in 10.0 mi NNW 15.0 mph - N/A   Partly Cloudy
6:53 PM 82.0 °F 34.0 °F 18% 29.92 in 10.0 mi NNW 18.4 mph - N/A   Partly Cloudy
7:53 PM 77.0 °F 37.9 °F 24% 29.92 in 10.0 mi NNW 11.5 mph - N/A   Partly Cloudy
8:53 PM 73.4 °F 42.8 °F 33% 29.94 in 7.0 mi North 9.2 mph - N/A   Partly Cloudy
9:53 PM 66.2 °F 44.6 °F 46% 29.95 in 7.0 mi WSW 5.8 mph - N/A   Partly Cloudy
10:53 PM 63.0 °F 45.0 °F 52% 29.96 in 10.0 mi West 3.5 mph - N/A   Clear
11:53 PM 57.9 °F 46.9 °F 67% 29.97 in 10.0 mi Calm Calm - N/A   Clear